When you browse on this site, cookies collect data to enhance your experience and personalize the content and advertising you see.
Visit our Privacy Policy to learn more. By continuing to use the site, you agree to this use of cookies and data.
  • In Schweiz
  • Länderverzeichnis
  • Für 7 Tage
  • Wassertemperatur
  • Satellitenkarten
  • Wetterkarte
  • Widgets
  • user-avatar
    Anmelden

    Stündliche Wetter Xishan

    Heute, 24 Juli, Mittwoch

    Zeit Temperatur Niederschläge Wind Luftdruck Luftfeuchtigkeit
    00:00 +26°C° 0.1 mm 1 m/S 735 mmHg 95%
    01:00 +26°C° 0 mm 1 m/S 735 mmHg 93%
    02:00 +26°C° 0 mm 1 m/S 735 mmHg 94%
    03:00 +24°C° 0 mm 0 m/S 734 mmHg 94%
    04:00 +23°C° 0 mm 0 m/S 734 mmHg 94%
    05:00 +25°C° 0 mm 0 m/S 735 mmHg 91%
    06:00 +26°C° 0 mm 0 m/S 735 mmHg 88%
    07:00 +27°C° 0 mm 0 m/S 735 mmHg 85%
    08:00 +28°C° 0 mm 0 m/S 736 mmHg 79%
    09:00 +32°C° 0 mm 1 m/S 736 mmHg 72%
    10:00 +34°C° 0 mm 1 m/S 736 mmHg 66%
    11:00 +34°C° 0.2 mm 1 m/S 735 mmHg 65%
    12:00 +36°C° 0.2 mm 2 m/S 735 mmHg 63%
    13:00 +36°C° 0.2 mm 2 m/S 734 mmHg 62%
    14:00 +36°C° 0.8 mm 2 m/S 734 mmHg 64%
    15:00 +36°C° 0.8 mm 2 m/S 733 mmHg 67%
    16:00 +35°C° 0.8 mm 2 m/S 733 mmHg 69%
    17:00 +32°C° 0.5 mm 2 m/S 733 mmHg 76%
    18:00 +31°C° 0.5 mm 1 m/S 733 mmHg 83%
    19:00 +29°C° 0.5 mm 1 m/S 734 mmHg 89%
    20:00 +29°C° 0.1 mm 1 m/S 734 mmHg 91%
    21:00 +28°C° 0.1 mm 1 m/S 735 mmHg 92%
    22:00 +28°C° 0.1 mm 1 m/S 736 mmHg 93%
    23:00 +28°C° 0 mm 1 m/S 736 mmHg 93%

    Morgen, 25 Juli, Donnerstag

    Zeit Temperatur Niederschläge Wind Luftdruck Luftfeuchtigkeit
    00:00 +27°C° 0 mm 1 m/S 736 mmHg 93%
    01:00 +27°C° 0 mm 1 m/S 736 mmHg 93%
    02:00 +27°C° 0 mm 1 m/S 735 mmHg 94%
    03:00 +27°C° 0 mm 1 m/S 735 mmHg 95%
    04:00 +26°C° 0 mm 1 m/S 735 mmHg 95%
    05:00 +27°C° 0 mm 1 m/S 736 mmHg 93%
    06:00 +28°C° 0 mm 1 m/S 736 mmHg 91%
    07:00 +29°C° 0 mm 1 m/S 737 mmHg 88%
    08:00 +31°C° 0.1 mm 1 m/S 737 mmHg 81%
    09:00 +33°C° 0.1 mm 1 m/S 737 mmHg 74%
    10:00 +34°C° 0.1 mm 1 m/S 737 mmHg 67%
    11:00 +35°C° 0.1 mm 1 m/S 736 mmHg 65%
    12:00 +35°C° 0.1 mm 1 m/S 735 mmHg 63%
    13:00 +36°C° 0.1 mm 1 m/S 735 mmHg 61%
    14:00 +36°C° 0.2 mm 2 m/S 734 mmHg 63%
    15:00 +36°C° 0.2 mm 2 m/S 734 mmHg 65%
    16:00 +36°C° 0.2 mm 2 m/S 733 mmHg 67%
    17:00 +34°C° 0.1 mm 2 m/S 734 mmHg 74%
    18:00 +31°C° 0.1 mm 2 m/S 734 mmHg 82%
    19:00 +29°C° 0.1 mm 1 m/S 734 mmHg 89%
    20:00 +29°C° 0 mm 1 m/S 735 mmHg 91%
    21:00 +28°C° 0 mm 1 m/S 735 mmHg 93%
    22:00 +28°C° 0 mm 1 m/S 736 mmHg 95%
    23:00 +28°C° 0 mm 1 m/S 736 mmHg 95%

    übermorgen, 26 Juli, Freitag

    Zeit Temperatur Niederschläge Wind Luftdruck Luftfeuchtigkeit
    00:00 +27°C° 0 mm 1 m/S 735 mmHg 95%
    01:00 +27°C° 0 mm 1 m/S 735 mmHg 96%
    02:00 +27°C° 0 mm 1 m/S 735 mmHg 96%
    03:00 +27°C° 0 mm 1 m/S 735 mmHg 96%
    04:00 +27°C° 0 mm 1 m/S 735 mmHg 97%
    05:00 +27°C° 0 mm 1 m/S 735 mmHg 94%
    06:00 +28°C° 0 mm 1 m/S 735 mmHg 92%
    07:00 +29°C° 0 mm 1 m/S 735 mmHg 89%
    08:00 +31°C° 0.1 mm 1 m/S 735 mmHg 81%
    09:00 +32°C° 0.1 mm 1 m/S 736 mmHg 74%
    10:00 +34°C° 0.1 mm 1 m/S 736 mmHg 66%
    11:00 +36°C° 0.1 mm 2 m/S 735 mmHg 63%
    12:00 +36°C° 0.1 mm 2 m/S 734 mmHg 61%
    13:00 +37°C° 0.1 mm 2 m/S 734 mmHg 58%
    14:00 +37°C° 0 mm 2 m/S 733 mmHg 61%
    15:00 +36°C° 0 mm 2 m/S 733 mmHg 63%
    16:00 +36°C° 0 mm 3 m/S 732 mmHg 65%
    17:00 +34°C° 0.1 mm 2 m/S 732 mmHg 73%
    18:00 +32°C° 0.1 mm 2 m/S 733 mmHg 81%
    19:00 +30°C° 0.1 mm 1 m/S 733 mmHg 89%
    20:00 +29°C° 0 mm 1 m/S 733 mmHg 91%
    21:00 +29°C° 0 mm 1 m/S 734 mmHg 93%
    22:00 +28°C° 0 mm 1 m/S 734 mmHg 95%
    23:00 +28°C° 0 mm 1 m/S 734 mmHg 96%

    27 Juli, Samstag

    Zeit Temperatur Niederschläge Wind Luftdruck Luftfeuchtigkeit
    00:00 +28°C° 0 mm 1 m/S 734 mmHg 96%
    01:00 +27°C° 0 mm 1 m/S 734 mmHg 97%
    02:00 +27°C° 0 mm 1 m/S 734 mmHg 97%
    03:00 +27°C° 0 mm 1 m/S 734 mmHg 97%
    04:00 +27°C° 0 mm 1 m/S 734 mmHg 97%
    05:00 +27°C° 0 mm 1 m/S 734 mmHg 95%
    06:00 +28°C° 0 mm 1 m/S 734 mmHg 92%
    07:00 +29°C° 0 mm 1 m/S 735 mmHg 90%
    08:00 +30°C° 0 mm 1 m/S 735 mmHg 82%
    09:00 +32°C° 0 mm 2 m/S 735 mmHg 74%
    10:00 +35°C° 0 mm 2 m/S 735 mmHg 66%
    11:00 +35°C° 0 mm 2 m/S 734 mmHg 64%
    12:00 +36°C° 0 mm 3 m/S 734 mmHg 62%
    13:00 +37°C° 0 mm 3 m/S 733 mmHg 60%
    14:00 +36°C° 0 mm 3 m/S 733 mmHg 62%
    15:00 +36°C° 0 mm 3 m/S 733 mmHg 64%
    16:00 +36°C° 0 mm 3 m/S 732 mmHg 65%
    17:00 +34°C° 0 mm 2 m/S 733 mmHg 74%
    18:00 +31°C° 0 mm 2 m/S 733 mmHg 82%
    19:00 +30°C° 0 mm 1 m/S 733 mmHg 90%
    20:00 +29°C° 0.1 mm 1 m/S 734 mmHg 92%
    21:00 +29°C° 0.1 mm 1 m/S 735 mmHg 94%
    22:00 +28°C° 0.1 mm 1 m/S 735 mmHg 96%
    23:00 +28°C° 0.1 mm 1 m/S 735 mmHg 96%

    28 Juli, Sonntag

    Zeit Temperatur Niederschläge Wind Luftdruck Luftfeuchtigkeit
    00:00 +28°C° 0.1 mm 1 m/S 735 mmHg 96%
    01:00 +28°C° 0.1 mm 1 m/S 734 mmHg 97%
    02:00 +27°C° 0 mm 1 m/S 734 mmHg 97%
    03:00 +27°C° 0 mm 1 m/S 734 mmHg 97%
    04:00 +27°C° 0 mm 1 m/S 734 mmHg 97%
    05:00 +27°C° 0 mm 1 m/S 735 mmHg 95%
    06:00 +28°C° 0 mm 1 m/S 735 mmHg 93%
    07:00 +29°C° 0 mm 1 m/S 736 mmHg 90%
    08:00 +30°C° 0.1 mm 1 m/S 736 mmHg 82%
    09:00 +32°C° 0.1 mm 2 m/S 736 mmHg 74%
    10:00 +35°C° 0.1 mm 2 m/S 736 mmHg 66%
    11:00 +36°C° 0 mm 2 m/S 735 mmHg 64%
    12:00 +36°C° 0 mm 3 m/S 735 mmHg 61%
    13:00 +37°C° 0 mm 3 m/S 734 mmHg 59%
    14:00 +36°C° 0.1 mm 3 m/S 734 mmHg 61%
    15:00 +36°C° 0.1 mm 3 m/S 734 mmHg 64%
    16:00 +36°C° 0.1 mm 3 m/S 733 mmHg 67%
    17:00 +34°C° 0 mm 2 m/S 734 mmHg 75%
    18:00 +31°C° 0 mm 2 m/S 734 mmHg 83%
    19:00 +29°C° 0 mm 1 m/S 734 mmHg 91%
    20:00 +29°C° 0 mm 1 m/S 734 mmHg 92%
    21:00 +28°C° 0 mm 1 m/S 735 mmHg 94%
    22:00 +28°C° 0 mm 1 m/S 735 mmHg 96%
    23:00 +28°C° 0 mm 1 m/S 735 mmHg 96%

    29 Juli, Montag

    Zeit Temperatur Niederschläge Wind Luftdruck Luftfeuchtigkeit
    00:00 +27°C° 0 mm 1 m/S 735 mmHg 96%
    01:00 +27°C° 0 mm 1 m/S 735 mmHg 96%
    02:00 +27°C° 0 mm 1 m/S 735 mmHg 97%
    03:00 +27°C° 0 mm 1 m/S 735 mmHg 97%
    04:00 +27°C° 0 mm 1 m/S 735 mmHg 97%
    05:00 +27°C° 0.1 mm 1 m/S 736 mmHg 95%
    06:00 +28°C° 0.1 mm 1 m/S 736 mmHg 93%
    07:00 +29°C° 0.1 mm 1 m/S 736 mmHg 90%
    08:00 +31°C° 0.1 mm 1 m/S 736 mmHg 82%
    09:00 +32°C° 0.1 mm 2 m/S 736 mmHg 74%
    10:00 +35°C° 0.1 mm 2 m/S 737 mmHg 66%
    11:00 +35°C° 0 mm 2 m/S 736 mmHg 62%
    12:00 +36°C° 0 mm 3 m/S 736 mmHg 59%
    13:00 +37°C° 0 mm 3 m/S 735 mmHg 56%
    14:00 +37°C° 0 mm 3 m/S 735 mmHg 58%
    15:00 +36°C° 0 mm 3 m/S 734 mmHg 61%
    16:00 +36°C° 0 mm 3 m/S 734 mmHg 64%
    17:00 +34°C° 0 mm 2 m/S 734 mmHg 72%
    18:00 +31°C° 0 mm 2 m/S 734 mmHg 81%
    19:00 +29°C° 0 mm 1 m/S 734 mmHg 89%
    20:00 +29°C° 0 mm 1 m/S 735 mmHg 91%
    21:00 +28°C° 0 mm 1 m/S 735 mmHg 93%
    22:00 +28°C° 0 mm 1 m/S 736 mmHg 95%
    23:00 +27°C° 0 mm 1 m/S 736 mmHg 95%
    Mehr zeigen